| time (UTC) | temp F | wind direction | speed MPH | gust MPH | rain 1hr in | rain 24hr in | rain mn in | humidity % | barometer mb |
| 20260504141003 | 65 | 211 | 1.0 | 7.0 | 0.00 | 0.00 | 0.00 | 42 | 1014.6 |
| 20260504140503 | 65 | 209 | 3.0 | 7.0 | 0.00 | 0.00 | 0.00 | 42 | 1014.6 |
| 20260504130545 | 57 | 253 | 2.0 | 5.0 | 0.00 | 0.00 | 0.00 | 54 | 1015.0 |
| 20260504110526 | 49 | 247 | 0.0 | 1.0 | 0.00 | 0.00 | 0.00 | 66 | 1015.5 |
| 20260504100520 | 49 | 247 | 0.0 | 0.0 | 0.00 | 0.00 | 0.00 | 63 | 1015.3 |
| 20260504081515 | 50 | 247 | 0.0 | 1.0 | 0.00 | 0.00 | 0.00 | 59 | 1015.8 |
| 20260504081017 | 50 | 247 | 0.0 | 1.0 | 0.00 | 0.00 | 0.00 | 59 | 1015.8 |
| 20260504080515 | 50 | 247 | 0.0 | 2.0 | 0.00 | 0.00 | 0.00 | 59 | 1015.7 |
| 20260504050600 | 50 | 247 | 0.0 | 0.0 | 0.00 | 0.00 | 0.00 | 52 | 1016.4 |
| 20260504045602 | 51 | 247 | 0.0 | 0.0 | 0.00 | 0.00 | 0.00 | 51 | 1016.3 |
| 20260504045059 | 51 | 247 | 0.0 | 0.0 | 0.00 | 0.00 | 0.00 | 50 | 1016.3 |
| 20260504044619 | 51 | 247 | 0.0 | 0.0 | 0.00 | 0.00 | 0.00 | 51 | 1016.4 |
| 20260504044057 | 51 | 247 | 0.0 | 0.0 | 0.00 | 0.00 | 0.00 | 50 | 1016.3 |
| 20260504043556 | 51 | 247 | 0.0 | 0.0 | 0.00 | 0.00 | 0.00 | 50 | 1016.3 |
| 20260504043056 | 51 | 247 | 0.0 | 0.0 | 0.00 | 0.00 | 0.00 | 50 | 1016.3 |
| 20260504042556 | 51 | 247 | 0.0 | 0.0 | 0.00 | 0.00 | 0.00 | 50 | 1016.2 |
| 20260504042054 | 51 | 247 | 0.0 | 1.0 | 0.00 | 0.00 | 0.00 | 49 | 1016.2 |
| 20260504041554 | 51 | 247 | 0.0 | 1.0 | 0.00 | 0.00 | 0.00 | 48 | 1016.2 |
| 20260504041054 | 52 | 247 | 0.0 | 0.0 | 0.00 | 0.00 | 0.00 | 48 | 1016.2 |
| 20260504040554 | 52 | 247 | 0.0 | 0.0 | 0.00 | 0.00 | 0.00 | 48 | 1016.2 |
| 20260504040109 | 52 | 247 | 0.0 | 0.0 | 0.00 | 0.00 | 0.00 | 48 | 1016.1 |
| 20260504035557 | 51 | 247 | 0.0 | 2.0 | 0.00 | 0.00 | 0.00 | 48 | 1016.2 |
| 20260504035052 | 51 | 247 | 0.0 | 2.0 | 0.00 | 0.00 | 0.00 | 48 | 1016.2 |
| 20260504034555 | 51 | 247 | 0.0 | 1.0 | 0.00 | 0.00 | 0.00 | 48 | 1016.3 |
| 20260504034051 | 51 | 247 | 0.0 | 1.0 | 0.00 | 0.00 | 0.00 | 48 | 1016.3 |
| 20260504033553 | 51 | 247 | 0.0 | 1.0 | 0.00 | 0.00 | 0.00 | 48 | 1016.3 |
| 20260504033053 | 51 | 247 | 0.0 | 0.0 | 0.00 | 0.00 | 0.00 | 48 | 1016.3 |
| 20260504032551 | 51 | 247 | 0.0 | 2.0 | 0.00 | 0.00 | 0.00 | 49 | 1016.2 |
| 20260504032051 | 51 | 247 | 0.0 | 2.0 | 0.00 | 0.00 | 0.00 | 49 | 1016.2 |
| 20260504031551 | 51 | 247 | 0.0 | 1.0 | 0.00 | 0.00 | 0.00 | 50 | 1016.1 |
| 20260504031050 | 51 | 247 | 0.0 | 1.0 | 0.00 | 0.00 | 0.00 | 50 | 1016.0 |
| 20260504030550 | 50 | 247 | 0.0 | 1.0 | 0.00 | 0.00 | 0.00 | 51 | 1016.1 |
| 20260504030050 | 50 | 247 | 0.0 | 1.0 | 0.00 | 0.00 | 0.00 | 53 | 1016.1 |
| 20260504025552 | 50 | 247 | 0.0 | 1.0 | 0.00 | 0.00 | 0.00 | 53 | 1016.1 |
| 20260504025050 | 50 | 247 | 0.0 | 2.0 | 0.00 | 0.00 | 0.00 | 54 | 1016.0 |
| 20260504024550 | 50 | 247 | 0.0 | 1.0 | 0.00 | 0.00 | 0.00 | 55 | 1015.9 |
| 20260504024049 | 50 | 247 | 0.0 | 1.0 | 0.00 | 0.00 | 0.00 | 57 | 1015.9 |
| 20260504023549 | 50 | 247 | 0.0 | 0.0 | 0.00 | 0.00 | 0.00 | 58 | 1015.8 |
| 20260504023049 | 50 | 247 | 0.0 | 0.0 | 0.00 | 0.00 | 0.00 | 58 | 1015.8 |
| 20260504022550 | 50 | 247 | 0.0 | 0.0 | 0.00 | 0.00 | 0.00 | 59 | 1015.8 |
| 20260504022048 | 50 | 247 | 0.0 | 0.0 | 0.00 | 0.00 | 0.00 | 58 | 1015.8 |
| 20260504021550 | 50 | 247 | 0.0 | 0.0 | 0.00 | 0.00 | 0.00 | 57 | 1015.7 |
| 20260504021051 | 51 | 247 | 0.0 | 0.0 | 0.00 | 0.00 | 0.00 | 57 | 1015.7 |
| 20260504020551 | 51 | 247 | 0.0 | 0.0 | 0.00 | 0.00 | 0.00 | 56 | 1015.7 |
| 20260504020048 | 51 | 247 | 0.0 | 0.0 | 0.00 | 0.00 | 0.00 | 54 | 1015.6 |
| 20260504015548 | 51 | 247 | 0.0 | 0.0 | 0.00 | 0.00 | 0.00 | 54 | 1015.6 |
| 20260504015048 | 52 | 247 | 0.0 | 0.0 | 0.00 | 0.00 | 0.00 | 53 | 1015.5 |
| 20260504014548 | 52 | 247 | 0.0 | 0.0 | 0.00 | 0.00 | 0.00 | 51 | 1015.5 |
| 20260504014047 | 52 | 247 | 0.0 | 0.0 | 0.00 | 0.00 | 0.00 | 50 | 1015.5 |
| 20260504013547 | 53 | 247 | 0.0 | 0.0 | 0.00 | 0.00 | 0.00 | 51 | 1015.4 |
| 20260504013056 | 53 | 247 | 0.0 | 0.0 | 0.00 | 0.00 | 0.00 | 51 | 1015.3 |
| 20260504012547 | 53 | 247 | 0.0 | 0.0 | 0.00 | 0.00 | 0.00 | 49 | 1015.4 |
| 20260504012047 | 53 | 247 | 0.0 | 0.0 | 0.00 | 0.00 | 0.00 | 49 | 1015.3 |
| 20260504011547 | 53 | 247 | 0.0 | 0.0 | 0.00 | 0.00 | 0.00 | 49 | 1015.4 |
| 20260504011047 | 53 | 247 | 0.0 | 1.0 | 0.00 | 0.00 | 0.00 | 48 | 1015.4 |
| 20260504010546 | 54 | 247 | 0.0 | 1.0 | 0.00 | 0.00 | 0.00 | 47 | 1015.3 |
| 20260504010056 | 55 | 247 | 0.0 | 0.0 | 0.00 | 0.00 | 0.00 | 44 | 1015.3 |
| 20260504005546 | 55 | 247 | 0.0 | 0.0 | 0.00 | 0.00 | 0.00 | 43 | 1015.3 |
| 20260504005046 | 56 | 247 | 0.0 | 0.0 | 0.00 | 0.00 | 0.00 | 41 | 1015.3 |
| 20260504004552 | 56 | 247 | 0.0 | 0.0 | 0.00 | 0.00 | 0.00 | 40 | 1015.1 |
| 20260504004048 | 57 | 247 | 0.0 | 0.0 | 0.00 | 0.00 | 0.00 | 38 | 1015.1 |
| 20260504003544 | 57 | 247 | 0.0 | 0.0 | 0.00 | 0.00 | 0.00 | 38 | 1015.1 |
| 20260504003046 | 57 | 247 | 0.0 | 0.0 | 0.00 | 0.00 | 0.00 | 38 | 1015.1 |
| 20260504002544 | 58 | 247 | 0.0 | 0.0 | 0.00 | 0.00 | 0.00 | 37 | 1015.1 |
| 20260504002045 | 58 | 247 | 0.0 | 0.0 | 0.00 | 0.00 | 0.00 | 37 | 1015.1 |
| 20260504001546 | 58 | 247 | 0.0 | 1.0 | 0.00 | 0.00 | 0.00 | 36 | 1015.0 |
| 20260504001044 | 59 | 247 | 0.0 | 1.0 | 0.00 | 0.00 | 0.00 | 35 | 1015.0 |
| 20260504000544 | 59 | 247 | 0.0 | 0.0 | 0.00 | 0.00 | 0.00 | 35 | 1014.9 |
| 20260504000044 | 59 | 247 | 0.0 | 3.0 | 0.00 | 0.00 | 0.00 | 35 | 1014.8 |
| 20260503235543 | 60 | 247 | 0.0 | 4.0 | 0.00 | 0.00 | 0.00 | 34 | 1014.8 |
| 20260503235043 | 60 | 307 | 0.0 | 4.0 | 0.00 | 0.00 | 0.00 | 34 | 1014.8 |
| 20260503234543 | 60 | 252 | 0.0 | 1.0 | 0.00 | 0.00 | 0.00 | 34 | 1014.8 |
| 20260503234043 | 60 | 252 | 0.0 | 7.0 | 0.00 | 0.00 | 0.00 | 34 | 1014.7 |
| 20260503233543 | 60 | 252 | 2.0 | 7.0 | 0.00 | 0.00 | 0.00 | 32 | 1014.7 |
| 20260503233046 | 60 | 317 | 1.0 | 8.0 | 0.00 | 0.00 | 0.00 | 33 | 1014.6 |
| 20260503232542 | 61 | 227 | 3.0 | 8.0 | 0.00 | 0.00 | 0.00 | 32 | 1014.7 |
| 20260503232042 | 61 | 248 | 1.0 | 5.0 | 0.00 | 0.00 | 0.00 | 33 | 1014.6 |
| 20260503231542 | 61 | 327 | 1.0 | 8.0 | 0.00 | 0.00 | 0.00 | 34 | 1014.5 |
| 20260503231044 | 61 | 273 | 1.0 | 8.0 | 0.00 | 0.00 | 0.00 | 32 | 1014.5 |
| 20260503230545 | 61 | 234 | 2.0 | 8.0 | 0.00 | 0.00 | 0.00 | 31 | 1014.4 |
| 20260503230041 | 61 | 238 | 0.0 | 7.0 | 0.00 | 0.00 | 0.00 | 33 | 1014.4 |
| 20260503225540 | 61 | 343 | 1.0 | 8.0 | 0.00 | 0.00 | 0.00 | 32 | 1014.5 |
| 20260503225040 | 61 | 245 | 4.0 | 8.0 | 0.00 | 0.00 | 0.00 | 32 | 1014.5 |
| 20260503224540 | 61 | 244 | 1.0 | 10.0 | 0.00 | 0.00 | 0.00 | 31 | 1014.5 |
| 20260503224041 | 62 | 230 | 1.0 | 8.0 | 0.00 | 0.00 | 0.00 | 31 | 1014.5 |
| 20260503223540 | 62 | 236 | 2.0 | 9.0 | 0.00 | 0.00 | 0.00 | 32 | 1014.5 |
| 20260503223040 | 62 | 264 | 2.0 | 9.0 | 0.00 | 0.00 | 0.00 | 31 | 1014.6 |
| 20260503222538 | 62 | 301 | 3.0 | 10.0 | 0.00 | 0.00 | 0.00 | 31 | 1014.6 |
| 20260503222038 | 62 | 260 | 3.0 | 10.0 | 0.00 | 0.00 | 0.00 | 31 | 1014.5 |
| 20260503221538 | 62 | 247 | 3.0 | 13.0 | 0.00 | 0.00 | 0.00 | 31 | 1014.5 |
| 20260503221038 | 62 | 309 | 2.0 | 13.0 | 0.00 | 0.00 | 0.00 | 31 | 1014.6 |
| 20260503220538 | 62 | 242 | 5.0 | 13.0 | 0.00 | 0.00 | 0.00 | 31 | 1014.6 |
| 20260503220038 | 62 | 288 | 2.0 | 10.0 | 0.00 | 0.00 | 0.00 | 30 | 1014.5 |
| 20260503215537 | 62 | 239 | 1.0 | 10.0 | 0.00 | 0.00 | 0.00 | 32 | 1014.6 |
| 20260503215036 | 62 | 290 | 1.0 | 12.0 | 0.00 | 0.00 | 0.00 | 32 | 1014.6 |
| 20260503214536 | 62 | 318 | 1.0 | 12.0 | 0.00 | 0.00 | 0.00 | 31 | 1014.6 |
| 20260503214039 | 62 | 313 | 2.0 | 7.0 | 0.00 | 0.00 | 0.00 | 31 | 1014.6 |
| 20260503213536 | 62 | 24 | 1.0 | 6.0 | 0.00 | 0.00 | 0.00 | 33 | 1014.8 |
| 20260503213036 | 62 | 241 | 2.0 | 9.0 | 0.00 | 0.00 | 0.00 | 30 | 1014.7 |
| 20260503212536 | 62 | 231 | 3.0 | 10.0 | 0.00 | 0.00 | 0.00 | 31 | 1014.8 |
| 20260503212038 | 62 | 234 | 3.0 | 12.0 | 0.00 | 0.00 | 0.00 | 29 | 1014.8 |
| 20260503211535 | 62 | 251 | 5.0 | 12.0 | 0.00 | 0.00 | 0.00 | 29 | 1014.8 |
| 20260503211036 | 62 | 283 | 5.0 | 13.0 | 0.00 | 0.00 | 0.00 | 30 | 1014.8 |
| 20260503210535 | 63 | 232 | 4.0 | 15.0 | 0.00 | 0.00 | 0.00 | 31 | 1014.8 |
| 20260503210035 | 63 | 249 | 6.0 | 15.0 | 0.00 | 0.00 | 0.00 | 29 | 1014.7 |
| 20260503205535 | 63 | 258 | 2.0 | 12.0 | 0.00 | 0.00 | 0.00 | 31 | 1014.8 |
| 20260503205036 | 62 | 278 | 1.0 | 12.0 | 0.00 | 0.00 | 0.00 | 33 | 1014.9 |
| 20260503204534 | 62 | 312 | 4.0 | 12.0 | 0.00 | 0.00 | 0.00 | 31 | 1014.9 |
| 20260503204036 | 62 | 284 | 2.0 | 8.0 | 0.00 | 0.00 | 0.00 | 33 | 1014.9 |
| 20260503203533 | 63 | 22 | 0.0 | 7.0 | 0.00 | 0.00 | 0.00 | 33 | 1014.9 |
| 20260503203040 | 63 | 338 | 1.0 | 8.0 | 0.00 | 0.00 | 0.00 | 32 | 1014.9 |
| 20260503202533 | 63 | 296 | 4.0 | 10.0 | 0.00 | 0.00 | 0.00 | 32 | 1015.0 |
| 20260503202033 | 63 | 249 | 3.0 | 10.0 | 0.00 | 0.00 | 0.00 | 32 | 1015.1 |
| 20260503201533 | 63 | 217 | 1.0 | 9.0 | 0.00 | 0.00 | 0.00 | 31 | 1015.0 |
| 20260503201032 | 63 | 225 | 3.0 | 8.0 | 0.00 | 0.00 | 0.00 | 32 | 1015.2 |
| 20260503200533 | 63 | 261 | 3.0 | 12.0 | 0.00 | 0.00 | 0.00 | 31 | 1015.3 |
| 20260503200031 | 63 | 216 | 6.0 | 12.0 | 0.00 | 0.00 | 0.00 | 32 | 1015.5 |
| 20260503195530 | 62 | 290 | 3.0 | 12.0 | 0.00 | 0.00 | 0.00 | 35 | 1015.4 |
| 20260503195029 | 62 | 227 | 4.0 | 12.0 | 0.00 | 0.00 | 0.00 | 33 | 1015.6 |
| 20260503194533 | 62 | 246 | 4.0 | 12.0 | 0.00 | 0.00 | 0.00 | 35 | 1015.7 |
| 20260503194029 | 62 | 158 | 1.0 | 10.0 | 0.00 | 0.00 | 0.00 | 34 | 1015.7 |
| 20260503193529 | 62 | 275 | 5.0 | 11.0 | 0.00 | 0.00 | 0.00 | 34 | 1015.7 |
| 20260503193029 | 62 | 274 | 3.0 | 14.0 | 0.00 | 0.00 | 0.00 | 35 | 1015.8 |
| 20260503192527 | 62 | 232 | 4.0 | 11.0 | 0.00 | 0.00 | 0.00 | 35 | 1016.0 |
| 20260503192027 | 62 | 302 | 3.0 | 11.0 | 0.00 | 0.00 | 0.00 | 34 | 1015.9 |
| 20260503191535 | 62 | 205 | 4.0 | 11.0 | 0.00 | 0.00 | 0.00 | 33 | 1016.1 |
| 20260503191026 | 62 | 240 | 5.0 | 12.0 | 0.00 | 0.00 | 0.00 | 34 | 1016.2 |
| 20260503190524 | 61 | 298 | 3.0 | 10.0 | 0.00 | 0.00 | 0.00 | 35 | 1016.2 |
| 20260503190028 | 61 | 286 | 3.0 | 11.0 | 0.00 | 0.00 | 0.00 | 37 | 1016.3 |
| 20260503185523 | 61 | 242 | 2.0 | 12.0 | 0.00 | 0.00 | 0.00 | 34 | 1016.3 |
| 20260503185023 | 61 | 306 | 7.0 | 12.0 | 0.00 | 0.00 | 0.00 | 34 | 1016.3 |
| 20260503184522 | 61 | 248 | 3.0 | 14.0 | 0.00 | 0.00 | 0.00 | 34 | 1016.3 |
| 20260503184024 | 61 | 261 | 5.0 | 14.0 | 0.00 | 0.00 | 0.00 | 34 | 1016.4 |
| 20260503183521 | 61 | 344 | 1.0 | 11.0 | 0.00 | 0.00 | 0.00 | 37 | 1016.5 |
| 20260503183021 | 61 | 251 | 2.0 | 15.0 | 0.00 | 0.00 | 0.00 | 38 | 1016.5 |
| 20260503182521 | 61 | 273 | 6.0 | 15.0 | 0.00 | 0.00 | 0.00 | 37 | 1016.7 |
| 20260503182020 | 61 | 250 | 1.0 | 14.0 | 0.00 | 0.00 | 0.00 | 39 | 1016.8 |
| 20260503181521 | 61 | 202 | 6.0 | 14.0 | 0.00 | 0.00 | 0.00 | 38 | 1016.7 |
| 20260503181021 | 61 | 220 | 4.0 | 11.0 | 0.00 | 0.00 | 0.00 | 38 | 1016.6 |
| 20260503180521 | 61 | 267 | 4.0 | 12.0 | 0.00 | 0.00 | 0.00 | 36 | 1016.7 |
| 20260503180024 | 60 | 213 | 3.0 | 12.0 | 0.00 | 0.00 | 0.00 | 39 | 1016.8 |
| 20260503175518 | 60 | 227 | 3.0 | 11.0 | 0.00 | 0.00 | 0.00 | 38 | 1016.7 |
| 20260503175020 | 59 | 243 | 3.0 | 17.0 | 0.00 | 0.00 | 0.00 | 38 | 1017.0 |
| 20260503174518 | 60 | 277 | 9.0 | 17.0 | 0.00 | 0.00 | 0.00 | 36 | 1017.1 |
| 20260503174018 | 60 | 348 | 1.0 | 11.0 | 0.00 | 0.00 | 0.00 | 38 | 1017.0 |
| 20260503173521 | 60 | 268 | 3.0 | 11.0 | 0.00 | 0.00 | 0.00 | 40 | 1017.1 |
| 20260503173016 | 60 | 266 | 4.0 | 10.0 | 0.00 | 0.00 | 0.00 | 36 | 1017.1 |
| 20260503172515 | 59 | 296 | 5.0 | 10.0 | 0.00 | 0.00 | 0.00 | 40 | 1017.1 |
| 20260503172015 | 59 | 299 | 2.0 | 7.0 | 0.00 | 0.00 | 0.00 | 40 | 1017.0 |
| 20260503171515 | 59 | 249 | 2.0 | 12.0 | 0.00 | 0.00 | 0.00 | 38 | 1017.1 |
| 20260503171017 | 59 | 247 | 4.0 | 12.0 | 0.00 | 0.00 | 0.00 | 38 | 1017.2 |
| 20260503170514 | 59 | 263 | 6.0 | 15.0 | 0.00 | 0.00 | 0.00 | 38 | 1017.3 |
| 20260503151001 | 56 | 37 | 2.0 | 8.0 | 0.00 | 0.00 | 0.00 | 44 | 1017.9 |
| 20260503150500 | 56 | 326 | 2.0 | 9.0 | 0.00 | 0.00 | 0.00 | 44 | 1018.1 |
| 20260503150104 | 56 | 286 | 3.0 | 10.0 | 0.00 | 0.00 | 0.00 | 45 | 1018.1 |